DW4776 Weather Reports


Display with metric or nautical units.
time (UTC)temp
F
wind
direction
speed
MPH
gust
MPH
rain 1hr
in
rain 24hr
in
rain mn
in
humidity
%
barometer
mb
20260503204547 69 326 9.0 24.0 0.00 0.00 0.00 19 1010.2
20260503203042 69 309 14.0 26.0 0.00 0.00 0.00 19 1010.3
20260503201538 69 295 14.0 20.0 0.00 0.00 0.00 19 1010.4
20260503200037 69 297 18.0 25.0 0.00 0.00 0.00 20 1010.7
20260503194539 69 298 10.0 23.0 0.00 0.00 0.00 20 1010.9
20260503193052 67 314 14.0 23.0 0.00 0.00 0.00 22 1011.2
20260503191543 67 305 16.0 24.0 0.00 0.00 0.00 20 1011.4
20260503190046 67 290 15.0 26.0 0.00 0.00 0.00 20 1011.6
20260503184539 67 305 14.0 25.0 0.00 0.00 0.00 20 1011.6
20260503183049 67 266 14.0 22.0 0.00 0.00 0.00 19 1011.7
20260503181539 66 272 11.0 22.0 0.00 0.00 0.00 20 1011.9
20260503180049 68 256 14.0 20.0 0.00 0.00 0.00 19 1012.2
20260503174534 68 291 14.0 24.0 0.00 0.00 0.00 19 1012.4
20260503173053 67 268 14.0 20.0 0.00 0.00 0.00 19 1012.6
20260503171545 67 279 16.0 23.0 0.00 0.00 0.00 20 1012.6
20260503081544 42 274 5.0 7.0 0.00 0.00 0.00 73 1015.3
20260503071547 44 221 4.0 6.0 0.00 0.00 0.00 66 1015.5
20260503054544 47 326 5.0 9.0 0.00 0.00 0.00 64 1015.8
20260503053039 46 329 7.0 9.0 0.00 0.00 0.00 64 1016.0
20260503051537 47 310 2.0 6.0 0.00 0.00 0.00 60 1016.0
20260503050038 49 287 4.0 7.0 0.00 0.00 0.00 58 1016.0
20260503044538 51 271 3.0 4.0 0.00 0.00 0.00 53 1016.1
20260503043037 53 270 2.0 5.0 0.00 0.00 0.00 52 1016.0
20260503041537 54 270 5.0 9.0 0.00 0.00 0.00 51 1016.1
20260503040038 54 224 8.0 14.0 0.00 0.00 0.00 48 1015.9
20260503034537 55 94 1.0 2.0 0.00 0.00 0.00 45 1015.8
20260503033044 55 94 2.0 4.0 0.00 0.00 0.00 44 1015.9
20260503031537 56 20 2.0 3.0 0.00 0.00 0.00 43 1015.8
20260503030036 57 20 1.0 3.0 0.00 0.00 0.00 41 1015.7
20260503024540 58 20 1.0 4.0 0.00 0.00 0.00 39 1015.7
20260503023035 60 20 1.0 3.0 0.00 0.00 0.00 39 1015.7
20260503021545 62 0 0.0 1.0 0.00 0.00 0.00 38 1015.5
20260503020044 62 0 0.0 1.0 0.00 0.00 0.00 36 1015.5
20260503014605 63 0 0.0 3.0 0.00 0.00 0.00 36 1015.5
20260503013039 63 26 1.0 4.0 0.00 0.00 0.00 36 1015.6
20260503011547 63 351 3.0 5.0 0.00 0.00 0.00 36 1015.7
20260503010048 63 2 0.0 4.0 0.00 0.00 0.00 36 1015.8
20260503004547 63 2 2.0 6.0 0.00 0.00 0.00 36 1016.0
20260503003037 63 12 2.0 5.0 0.00 0.00 0.00 36 1016.1
20260503001538 63 12 2.0 5.0 0.00 0.00 0.00 37 1016.3
20260503000037 63 29 3.0 8.0 0.00 0.00 0.00 36 1016.3
20260502234544 63 19 4.0 8.0 0.00 0.00 0.00 36 1016.4
20260502233043 63 324 1.0 7.0 0.00 0.00 0.00 36 1016.6
20260502231539 63 50 2.0 6.0 0.00 0.00 0.00 36 1016.8
20260502230034 63 67 3.0 6.0 0.00 0.00 0.00 37 1017.0
20260502224537 63 12 4.0 6.0 0.00 0.00 0.00 36 1017.2
20260502223040 63 353 3.0 12.0 0.00 0.00 0.00 36 1017.4
20260502221534 63 23 3.0 12.0 0.00 0.00 0.00 37 1017.6
20260502220039 63 25 3.0 10.0 0.00 0.00 0.00 36 1017.9
20260502214538 62 343 5.0 9.0 0.00 0.00 0.00 37 1018.1
20260502213037 63 23 2.0 3.0 0.00 0.00 0.00 36 1018.2
20260502211543 62 218 3.0 8.0 0.00 0.00 0.00 37 1018.3
20260502210040 62 143 1.0 5.0 0.00 0.00 0.00 38 1018.6